Flag for Central African Republic Weather past 2 weeks in Bimbo, Central African Republic

Now
81 °F

Broken clouds.


Feels Like: 85 °F
Forecast: 74 / 95 °F
Wind: No wind

Location: Bangui Airport

Current Time: Mar 5, 2015 at 9:34:57 AM

Latest Report: Mar 5, 2015 at 9:00 AM


Visibility: 5 mi

Pressure: 29.92 "Hg

Humidity: 79%

Dew point: 73 °F

Location of BimboLocation

Historic Weather in Bimbo — Graph

°F

Bimbo temperature yesterday

Maximum temperature yesterday: 91 °F (at 3:00 PM)
Minimum temperature yesterday: 73 °F (at 4:00 AM)
Average temperature yesterday: 81 °F

Past Weeks' High & Low Weather Summary

 TemperatureHumidityPressure
High99 °F (Feb 22, 3:00 PM)100% (Feb 18, 11:00 PM)30.01 "Hg (Feb 18, 11:00 PM)
Low66 °F (Feb 19, 6:00 AM)30% (Mar 2, 3:00 PM)29.68 "Hg (Feb 19, 4:00 PM)
Average82 °F74%29.82 "Hg
* Reported Feb 18 8:00 AM — Mar 5 8:00 AM, Bimbo, Weather by CustomWeather, © 2015

Note: Actual official high and low records may vary slightly from our data, if they occured in-between our weather recording intervals... More about our weather records

Advertising

Bimbo weather history for previous 24 hours

 ConditionsComfort  
Time TempWeatherWind HumidityBarometerVisibility
8:00 AM
Thu, Mar 5
77 °FBroken clouds.2 mph89%29.92 "Hg5 mi
7:00 AM75 °FPassing clouds.No wind94%29.86 "Hg5 mi
6:00 AM75 °FPartly sunny.No wind94%29.83 "Hg5 mi
5:00 AM75 °FPassing clouds.No wind94%29.86 "Hg5 mi
4:00 AM77 °FClear.2 mph89%29.83 "Hg10 mi
3:00 AM77 °FClear.No wind94%29.83 "Hg10 mi
2:00 AM77 °FClear.2 mph94%29.83 "Hg10 mi
1:00 AM77 °FClear.No wind94%29.83 "Hg5 mi
12:00 AM77 °FClear.No wind94%29.86 "Hg4 mi
11:00 PM
Wed, Mar 4
79 °FFog.2 mph94%29.86 "Hg2 mi
10:00 PM79 °FFog.No wind89%29.83 "Hg2 mi
9:00 PM81 °FFog.No wind89%29.83 "Hg2 mi
8:00 PM81 °FClear.No wind84%29.80 "Hg4 mi
7:00 PM82 °FClear.No wind84%29.77 "Hg4 mi
6:00 PM84 °FClear.No wind79%29.77 "Hg5 mi
5:00 PM88 °FPartly sunny.2 mph59%29.74 "HgN/A
4:00 PM90 °FPartly sunny.3 mph55%29.74 "HgN/A
3:00 PM91 °FPartly sunny.2 mph56%29.77 "HgN/A
2:00 PM90 °FBroken clouds.6 mph59%29.80 "HgN/A
1:00 PM90 °FPartly sunny.3 mph59%29.83 "HgN/A
12:00 PM86 °FPassing clouds.9 mph66%29.86 "HgN/A
11:00 AM86 °FScattered clouds.5 mph66%29.89 "HgN/A
10:00 AM82 °FBroken clouds.5 mph74%29.92 "HgN/A
9:00 AM79 °FPartly sunny.5 mph84%29.95 "HgN/A
Weather by CustomWeather, © 2015

See weather overviewHow to use our weather pages